KZR105 UAAA-UZTT

Flight info

Callsign KZR105
Flight time N/A
Altitude 36000
Route LAKEL1F LAKEL L135 MAMIR P984 TISIB TISIB2M
Aircraft A21N/M-SDE3FGHIRWY/LB1

Departure

Time N/A
Airport Almaty International Airport (UAAA)

Arrival

Time 2026-04-28 20:55
Airport Tashkent International Airport (UZTT)
Time Latitude Longitude Altitude Speed Heading
2026-04-28 20:50 41.16643 69.38286 4445 ft 239 kts 81°
2026-04-28 20:51 41.16885 69.40450 4151 ft 238 kts 80°
2026-04-28 20:51 41.17167 69.42601 3848 ft 236 kts 71°
2026-04-28 20:51 41.18016 69.44403 3534 ft 232 kts 39°
2026-04-28 20:51 41.18930 69.45116 3417 ft 225 kts 17°
2026-04-28 20:52 41.20926 69.44952 3300 ft 212 kts 331°
2026-04-28 20:52 41.22071 69.43823 3306 ft 201 kts 324°
2026-04-28 20:52 41.23200 69.42741 3297 ft 194 kts 324°
2026-04-28 20:52 41.24234 69.41711 3325 ft 171 kts 323°
2026-04-28 20:53 41.25975 69.39864 3309 ft 152 kts 319°
2026-04-28 20:53 41.26669 69.38827 3278 ft 149 kts 302°
2026-04-28 20:53 41.26955 69.37508 3056 ft 150 kts 270°
2026-04-28 20:54 41.26800 69.36130 2586 ft 154 kts 258°
2026-04-28 20:54 41.26558 69.34757 2175 ft 150 kts 262°
2026-04-28 20:54 41.26435 69.33413 1926 ft 147 kts 263°
2026-04-28 20:54 41.26281 69.32062 1763 ft 148 kts 261°
2026-04-28 20:55 41.26129 69.30695 1565 ft 148 kts 262°
2026-04-28 20:55 41.25979 69.29356 1430 ft 140 kts 262°
2026-04-28 20:55 41.25859 69.28240 1422 ft 98 kts 262°
2026-04-28 20:55 41.25787 69.27562 1422 ft 48 kts 261°
2026-04-28 20:56 41.25754 69.27266 1422 ft 27 kts 261°
2026-04-28 20:56 41.25725 69.27021 1422 ft 25 kts 262°
2026-04-28 20:56 41.25699 69.26795 1422 ft 24 kts 261°
2026-04-28 20:56 41.25677 69.26575 1422 ft 23 kts 262°
2026-04-28 20:57 41.25668 69.26457 1422 ft 9 kts 277°
2026-04-28 20:57 41.25702 69.26393 1422 ft 7 kts 320°
2026-04-28 20:57 41.25743 69.26357 1422 ft 8 kts 340°
2026-04-28 20:57 41.25805 69.26370 1422 ft 10 kts 36°
2026-04-28 20:58 41.25866 69.26430 1422 ft 11 kts 37°
2026-04-28 20:58 41.25927 69.26505 1422 ft 12 kts 56°
2026-04-28 20:58 41.25959 69.26616 1422 ft 13 kts 68°
2026-04-28 20:58 41.25999 69.26730 1422 ft 11 kts 66°
2026-04-28 20:59 41.26025 69.26785 1422 ft 6 kts 27°
2026-04-28 20:59 41.26054 69.26768 1422 ft 5 kts 315°
2026-04-28 20:59 41.26082 69.26731 1422 ft 4 kts 314°
2026-04-28 20:59 41.26098 69.26709 1422 ft 1 kts 315°
2026-04-28 21:00 41.26102 69.26704 1422 ft 0 kts 315°